Flag for Kazakhstan Weather past 2 weeks in Almaty, Kazakhstan

Now
37 °F

Fog.


Feels Like: 35 °F
Forecast: 53 / 71 °F
Wind: 3 mph from Southeast

Location: Almaty Airport

Current Time: Oct 22, 2014 at 7:05:50 AM

Latest Report: Oct 22, 2014 at 6:30 AM


Visibility: 2 mi

Pressure: 30.12 "Hg

Humidity: 87%

Dew point: 34 °F

Location of AlmatyLocation

Historic Weather in Almaty — Graph

°F

Almaty temperature yesterday

Maximum temperature yesterday: 57 °F (at 6:00 AM)
Minimum temperature yesterday: 45 °F (at 9:00 PM)
Average temperature yesterday: 49 °F

Past Weeks' High & Low Weather Summary

 TemperatureHumidityPressure
High77 °F (Oct 20, 1:30 PM)94% (Oct 7, 5:30 AM)30.72 "Hg (Oct 7, 5:30 AM)
Low27 °F (Oct 10, 5:30 AM)12% (Oct 12, 2:00 PM)29.77 "Hg (Oct 18, 11:30 PM)
Average50 °F59%30.16 "Hg
* Reported Oct 7 5:30 AM — Oct 22 5:30 AM, Almaty, Weather by CustomWeather, © 2014

Note: Actual official high and low records may vary slightly from our data, if they occured in-between our weather recording intervals... More about our weather records

Advertising

Almaty weather history for previous 24 hours

 ConditionsComfort  
Time TempWeatherWind HumidityBarometerVisibility
5:30 AM
Oct 22
37 °FFog.3 mph93%30.15 "Hg1 mi
5:00 AM37 °FFog.3 mph93%30.15 "Hg1 mi
4:30 AM37 °FFog.6 mph93%30.18 "Hg1 mi
4:00 AM37 °FFog.3 mph93%30.18 "Hg0 mi
3:30 AM39 °FFog.No wind93%30.18 "Hg1 mi
2:30 AM39 °FFog.1 mph93%30.24 "Hg1 mi
2:00 AM39 °FFog.1 mph93%30.24 "Hg2 mi
1:30 AM39 °FFog.3 mph93%30.24 "Hg1 mi
1:00 AM41 °FFog.3 mph93%30.24 "Hg2 mi
12:30 AM41 °FFog.3 mph93%30.27 "Hg3 mi
12:00 AM41 °FFog.3 mph93%30.27 "Hg3 mi
11:30 PM
Oct 21
45 °FLow clouds.6 mph87%30.27 "HgN/A
11:00 PM45 °FLow clouds.8 mph87%30.30 "HgN/A
10:30 PM46 °FLow clouds.10 mph87%30.30 "HgN/A
10:00 PM45 °FLow clouds.10 mph93%30.30 "HgN/A
9:30 PM45 °FLow clouds.10 mph93%30.33 "HgN/A
9:00 PM45 °FFog.10 mph93%30.33 "Hg3 mi
8:30 PM46 °FFog.8 mph87%30.33 "Hg2 mi
8:00 PM46 °FFog.8 mph87%30.33 "Hg1 mi
7:30 PM46 °FFog.8 mph93%30.33 "Hg1 mi
7:00 PM46 °FFog.6 mph93%30.36 "Hg2 mi
6:30 PM46 °FFog.6 mph93%30.36 "Hg2 mi
6:00 PM48 °FFog.3 mph87%30.36 "Hg3 mi
5:30 PM48 °FPassing clouds.3 mph94%30.33 "HgN/A
5:00 PM48 °FMostly cloudy.6 mph87%30.33 "HgN/A
4:30 PM50 °FMostly cloudy.3 mph82%30.33 "HgN/A
4:00 PM50 °FSprinkles. Mostly cloudy.3 mph82%30.33 "HgN/A
3:30 PM50 °FMostly cloudy.1 mph82%30.36 "HgN/A
3:00 PM50 °FMostly cloudy.6 mph88%30.33 "HgN/A
2:30 PM50 °FSprinkles. Mostly cloudy.1 mph82%30.36 "HgN/A
2:00 PM50 °FSprinkles. Mostly cloudy.3 mph88%30.36 "HgN/A
1:30 PM48 °FMostly cloudy.3 mph87%30.36 "HgN/A
1:00 PM48 °FSprinkles. Fog.6 mph87%30.36 "Hg3 mi
12:30 PM48 °FSprinkles. Fog.3 mph87%30.36 "Hg2 mi
12:00 PM48 °FSprinkles. Fog.3 mph87%30.36 "Hg2 mi
11:30 AM48 °FSprinkles. Fog.3 mph87%30.36 "Hg2 mi
11:00 AM48 °FSprinkles. Fog.1 mph87%30.33 "Hg3 mi
10:30 AM50 °FSprinkles. Fog.6 mph88%30.30 "Hg3 mi
10:00 AM50 °FSprinkles. Fog.6 mph88%30.27 "Hg3 mi
8:30 AM52 °FMostly cloudy.8 mph88%30.21 "HgN/A
8:00 AM54 °FMostly cloudy.13 mph82%30.21 "HgN/A
7:30 AM55 °FMore clouds than sun.20 mph77%30.15 "HgN/A
7:00 AM57 °FMore clouds than sun.17 mph55%30.09 "HgN/A
Weather by CustomWeather, © 2014

See weather overviewHow to use our weather pages